FALCON 9 R/B, 62260

Orbit data source: Space-Track

FALCON 9 R/B, 62260 is space debris in HEO originally from a launch on Thu, 05 Dec 2024 UTC launched from the Air Force Eastern Test Range (AFETR). Debris objects in space refer to the collection of defunct objects orbiting the Earth. Examples of debris include non-operational satellites, rocket bodies, and fragments generated from explosions, collisions, or faulty payload assembly.

Loading next visibility...
Identifier
62260, 2024-234B
Orbit
HEO
Country
Flag of USUS
Related business
Manufacturer
SpaceX
Mission
Spacecraft
Bus & Motor
F9ST2, Unknown motor
Mass
~4,000 kg wet, ~4,000 kg dry
Launch date (UTC)
2024-12-05 (2 years ago)
Launch vehicle
Unknown
Launch site
Air Force Eastern Test Range (AFETR)
Object type
Payload
Rocket body
Debris
Shape & HBR
Cyl, 8.0 m
Radar Cross Section
39.980 m², Large (>1 m²)

Expand to show TLE details & history
Last TLE update: 18 hours ago

TLE from 18 hours ago
0 FALCON 9 R/B
1 62260U 24234B   26257.92369246  .00029281  00000-0  91300-3 0  9992
2 62260  27.2411   5.3607 5757516 297.6862  16.0833  4.49259649 26452
Epoch: 2026-09-14T22:10Z
TLE epoch observation values (Epoch: 2026-09-14T22:10:07.028Z)
Latitude
-0.00008°
Longitude
38.92802°
Altitude
1,806.77 km
Speed
8.468 km/s
True Right ascension
00h 21m 25s
True Declination
0° 00' 00"
Sunlit
Object was in full shadow at epoch
Visualization orbit readout
Latitude
Unknown
Longitude
Unknown
Altitude
Unknown
Speed
Unknown
Apparent Right ascension
Unknown
Apparent Declination
Unknown
Sunlit
N/A
Visualization observer readout
Local Sidereal Time
09:01:53
Azimuth
Unknown
Elevation
Unknown
Doppler factor
Unknown
Orbital elements
Apogee altitude
18,074.439 km
Perigee altitude
205.367 km
Semi-major axis
15,518.04 km
Eccentricity
0.57575
Inclination
27.2411°
RAAN
5.3607°
Arg. of periapsis
297.6862°
True anomaly
62.58345°
Mean anomaly
16.0833°
Eccentric anomaly
35.00855°
Mean motion
1.12276 °/min
Orbital period
320.64 mins
BSTAR
0.000913
Loading maneuver chart data...
Computing Atmospheric mass density...
Loading historical data...
Loading historical data...
Loading historical data...
Loading historical data...
Loading historical data...
Loading historical data...
Loading historical data...
Other satellites on launch #234 in the year 2024 (2024-12-05 UTC)

Documentation

Showing up to 5 results
|